Location: Unspecified
(51.3762°N, 0.0000°E)
Time: 23:07:22
(UTC+00:00)

Tiangong 2 - Pass Details

Date: 22 May 2019
Orbit: 376 x 389 km, 42.8° (Epoch: 20 June)

Event Time Altitude Azimuth Distance (km) Brightness Sun altitude
Rises 20:32:54 0° 227° (SW) 2,231 5.0 -5.5°
Reaches altitude 10° 20:35:39 10° 200° (SSW) 1,381 3.6 -5.8°
Maximum altitude 20:37:21 14° 167° (SSE) 1,172 3.0 -6.0°
Drops below altitude 10° 20:39:04 10° 133° (SE) 1,382 3.2 -6.2°
Enters shadow 20:39:36 - 126° (SE) 1,515 3.4 -6.2°
